GW4222 Weather Reports


time (UTC)temp
C
wind
direction
speed
KPH
gust
KPH
rain 1hr
cm
rain 24hr
cm
rain mn
cm
humidity
%
barometer
mb
20260506200004 7 294 0.0 4.8 0.13 2.57 2.26 94 1006.5
20260506194518 7 317 0.0 3.2 0.10 2.62 2.24 94 1006.6
20260506193016 7 267 0.0 3.2 0.05 2.57 2.18 94 1006.7
20260506191517 7 296 0.0 4.8 0.05 2.54 2.16 94 1006.6
20260506190007 7 42 1.6 3.2 0.05 2.51 2.13 94 1006.6
20260506184508 7 299 0.0 4.8 0.13 2.51 2.13 94 1006.6
20260506183006 7 290 0.0 6.4 0.23 2.51 2.13 94 1006.6
20260506181522 7 56 1.6 6.4 0.30 2.49 2.11 94 1006.7
20260506180021 7 50 1.6 6.4 0.36 2.46 2.08 94 1007.2
20260506174518 7 346 3.2 12.9 0.33 2.39 2.01 94 1007.2
20260506171515 7 310 3.2 8.0 0.33 2.18 1.80 94 1007.3
20260506170007 8 296 0.0 6.4 0.38 2.11 1.73 95 1007.2
20260506163038 7 13 1.6 6.4 0.38 1.96 1.57 94 1007.2
20260506161518 7 57 1.6 6.4 0.33 1.85 1.47 94 1007.4
20260506154528 8 11 0.0 4.8 0.25 1.68 1.30 94 1007.4
20260506153009 8 33 3.2 8.0 0.20 1.57 1.19 94 1007.4
20260506151506 8 34 3.2 6.4 0.18 1.52 1.14 94 1007.6
20260506150007 8 25 1.6 8.0 0.15 1.47 1.09 94 1007.7
20260506144505 8 309 0.0 6.4 0.15 1.42 1.04 95 1007.9
20260506143004 8 33 0.0 6.4 0.15 1.37 0.99 95 1007.9
20260506141516 8 352 0.0 4.8 0.18 1.32 0.97 94 1007.8
20260506134511 8 40 0.0 3.2 0.25 1.27 0.89 94 1007.8
20260506133006 8 317 1.6 3.2 0.28 1.22 0.84 94 1008.2
20260506130004 8 148 0.0 4.8 0.23 1.12 0.74 95 1008.5
20260506124518 9 5 0.0 3.2 0.13 1.02 0.64 95 1008.6
20260506123017 9 40 1.6 4.8 0.05 0.94 0.56 95 1008.6
20260506121514 9 41 0.0 3.2 0.03 0.91 0.53 95 1008.5
20260506120012 9 241 1.6 6.4 0.03 0.89 0.51 95 1009.3
20260506114510 9 5 0.0 3.2 0.03 0.89 0.51 95 1008.5
20260506113006 9 352 0.0 3.2 0.05 0.89 0.51 95 1008.5
20260506111529 9 352 0.0 3.2 0.05 0.89 0.51 95 1008.5
20260506110020 9 326 0.0 3.2 0.05 0.86 0.48 95 1008.4
20260506104518 9 346 0.0 3.2 0.05 0.86 0.48 95 1008.5
20260506103016 10 352 1.6 3.2 0.03 0.84 0.46 95 1008.4
20260506101512 10 352 0.0 3.2 0.03 0.84 0.46 95 1008.8
20260506100006 10 322 1.6 3.2 0.00 0.81 0.43 95 1008.8
20260506094525 10 30 1.6 3.2 0.00 0.81 0.43 95 1008.9
20260506093022 10 71 0.0 4.8 0.00 0.81 0.43 95 1008.3
20260506091521 10 323 0.0 4.8 0.03 0.81 0.43 95 1008.7
20260506084514 11 311 1.6 3.2 0.05 0.81 0.43 96 1009.0
20260506083031 11 85 0.0 3.2 0.05 0.81 0.43 96 1008.9
20260506081525 11 85 0.0 6.4 0.05 0.79 0.41 96 1009.1
20260506073021 11 198 0.0 3.2 0.13 0.76 0.38 96 1008.4
20260506071520 11 203 0.0 3.2 0.10 0.74 0.36 96 1008.3
20260506061507 11 136 0.0 3.2 0.05 0.64 0.25 95 1008.6
20260506044515 11 285 0.0 3.2 0.28 0.58 0.20 95 1008.9
20260506043007 11 269 0.0 3.2 0.28 0.53 0.15 94 1008.2
20260506041502 12 42 0.0 4.8 0.38 0.53 0.15 93 1008.8
20260506040003 12 240 1.6 6.4 0.23 0.38 0.00 94 1009.3
20260506033017 13 136 3.2 8.0 0.13 0.25 0.25 95 1008.0
20260506031512 13 336 0.0 3.2 0.03 0.15 0.15 95 1007.2
20260506030012 12 336 0.0 3.2 0.03 0.15 0.15 95 1007.2
20260506024505 12 336 0.0 0.0 0.03 0.15 0.15 95 1007.0
20260506021504 13 336 1.6 3.2 0.00 0.13 0.13 95 1007.2
20260506020017 13 336 0.0 3.2 0.00 0.13 0.13 95 1007.1
20260506013030 13 336 0.0 3.2 0.00 0.13 0.13 95 1006.4
20260506011521 13 336 0.0 3.2 0.00 0.13 0.13 94 1006.4
20260506010009 13 336 0.0 0.0 0.00 0.13 0.13 94 1006.3
20260506004505 13 336 0.0 3.2 0.00 0.13 0.13 94 1006.3
20260506003023 13 336 1.6 3.2 0.00 0.13 0.13 94 1006.2
20260506001521 13 336 0.0 3.2 0.00 0.13 0.13 94 1006.0
20260506000018 14 336 0.0 3.2 0.00 0.13 0.13 94 1006.1
20260505234516 14 336 0.0 3.2 0.00 0.13 0.13 94 1006.2
20260505233021 14 336 0.0 3.2 0.00 0.13 0.13 94 1005.5
20260505231507 15 336 0.0 3.2 0.00 0.13 0.13 94 1005.5
20260505230028 15 336 0.0 3.2 0.00 0.13 0.13 93 1005.3
20260505224520 15 257 1.6 4.8 0.00 0.13 0.13 93 1005.2
20260505223021 15 289 1.6 3.2 0.00 0.13 0.13 93 1005.0
20260505221518 15 263 0.0 3.2 0.00 0.13 0.13 93 1005.4
20260505220029 15 261 0.0 3.2 0.00 0.13 0.13 93 1005.5
20260505213027 16 326 0.0 4.8 0.05 0.13 0.13 93 1005.0
20260505211507 16 27 3.2 4.8 0.05 0.13 0.13 92 1004.9
20260505210004 16 291 1.6 3.2 0.05 0.13 0.13 91 1004.9
20260505204505 16 291 0.0 3.2 0.13 0.13 0.13 89 1004.8
20260505203020 17 215 0.0 3.2 0.08 0.08 0.08 87 1003.9